Time,TemperatureF,DewpointF,PressureIn,WindDirection,WindDirectionDegrees,WindSpeedMPH,WindSpeedGustMPH,Humidity,HourlyPrecipIn,Conditions,Clouds,dailyrainin,SoftwareType,DateUTC
2013-03-13 00:00:00,25.9,21.2,30.04,WNW,283,2.0,9.0,82,0.00,,SCT026,0.00,VWS V14.01,2013-03-13 05:00:00,
2013-03-13 00:07:00,25.9,21.2,30.04,WNW,293,10.0,10.0,82,0.00,,OVC024,0.00,VWS V14.01,2013-03-13 05:07:00,
2013-03-13 00:12:00,25.9,21.2,30.04,WNW,296,4.0,9.0,82,0.00,,OVC024,0.00,VWS V14.01,2013-03-13 05:12:00,
2013-03-13 00:17:00,25.9,21.2,30.04,WNW,300,3.0,8.0,82,0.00,,OVC024,0.00,VWS V14.01,2013-03-13 05:17:00,
2013-03-13 00:22:00,26.0,21.3,30.04,West,273,7.0,9.0,82,0.00,,OVC024,0.00,VWS V14.01,2013-03-13 05:22:00,
2013-03-13 00:27:00,26.0,21.3,30.04,West,274,7.0,8.0,82,0.00,,OVC024,0.00,VWS V14.01,2013-03-13 05:27:00,
2013-03-13 00:32:00,26.0,21.3,30.04,WNW,294,5.0,8.0,82,0.00,,OVC024,0.00,VWS V14.01,2013-03-13 05:32:00,
2013-03-13 00:37:00,26.0,21.3,30.04,West,275,1.0,7.0,82,0.00,,OVC024,0.00,VWS V14.01,2013-03-13 05:37:00,
2013-03-13 00:42:00,26.0,21.3,30.04,West,279,8.0,8.0,82,0.00,,OVC024,0.00,VWS V14.01,2013-03-13 05:42:00,
2013-03-13 00:47:00,26.0,21.3,30.04,WNW,294,5.0,9.0,82,0.00,,OVC024,0.00,VWS V14.01,2013-03-13 05:47:00,
2013-03-13 00:52:00,26.0,21.3,30.04,WNW,288,2.0,10.0,82,0.00,,OVC060,0.00,VWS V14.01,2013-03-13 05:52:00,
2013-03-13 00:57:00,26.0,21.3,30.04,WNW,290,4.0,9.0,82,0.00,,OVC060,0.00,VWS V14.01,2013-03-13 05:57:00,
2013-03-13 01:02:00,25.9,21.2,30.04,West,263,5.0,10.0,82,0.00,,OVC060,0.00,VWS V14.01,2013-03-13 06:02:00,
2013-03-13 01:07:00,25.9,21.2,30.04,West,279,7.0,10.0,82,0.00,,OVC060,0.00,VWS V14.01,2013-03-13 06:07:00,
2013-03-13 01:12:00,25.8,21.1,30.04,West,276,4.0,5.0,82,0.00,,OVC060,0.00,VWS V14.01,2013-03-13 06:12:00,
2013-03-13 01:17:00,25.8,21.1,30.05,West,281,3.0,9.0,82,0.00,,OVC060,0.00,VWS V14.01,2013-03-13 06:17:00,
2013-03-13 01:22:00,25.7,21.0,30.05,West,271,10.0,10.0,82,0.00,,OVC060,0.00,VWS V14.01,2013-03-13 06:22:00,
2013-03-13 01:27:00,25.5,20.8,30.05,WNW,301,4.0,11.0,82,0.00,,OVC060,0.00,VWS V14.01,2013-03-13 06:27:00,
2013-03-13 01:32:00,25.3,20.6,30.05,WNW,287,3.0,8.0,82,0.00,,OVC060,0.00,VWS V14.01,2013-03-13 06:32:00,
2013-03-13 01:37:00,25.2,20.5,30.05,West,263,4.0,6.0,82,0.00,,OVC060,0.00,VWS V14.01,2013-03-13 06:37:00,
2013-03-13 01:42:00,25.0,20.6,30.05,WNW,282,4.0,11.0,83,0.00,,OVC060,0.00,VWS V14.01,2013-03-13 06:42:00,
2013-03-13 01:47:00,24.9,20.5,30.06,West,263,8.0,8.0,83,0.00,,OVC060,0.00,VWS V14.01,2013-03-13 06:47:00,
2013-03-13 01:52:00,24.9,20.5,30.06,West,275,8.0,8.0,83,0.00,,OVC060,0.00,VWS V14.01,2013-03-13 06:52:00,
2013-03-13 01:57:00,24.9,20.5,30.06,West,264,4.0,7.0,83,0.00,,OVC060,0.00,VWS V14.01,2013-03-13 06:57:00,
2013-03-13 02:02:00,24.8,20.7,30.06,West,279,8.0,8.0,84,0.00,,SCT060,0.00,VWS V14.01,2013-03-13 07:02:00,
2013-03-13 02:07:00,24.8,20.7,30.06,WNW,296,3.0,8.0,84,0.00,,SCT060,0.00,VWS V14.01,2013-03-13 07:07:00,
2013-03-13 02:12:00,24.7,20.6,30.06,WNW,282,4.0,7.0,84,0.00,,SCT060,0.00,VWS V14.01,2013-03-13 07:12:00,
2013-03-13 02:17:00,24.5,20.1,30.07,WNW,284,4.0,6.0,83,0.00,,SCT060,0.00,VWS V14.01,2013-03-13 07:17:00,
2013-03-13 02:22:00,24.4,20.3,30.07,WNW,300,2.0,6.0,84,0.00,,OVC060,0.00,VWS V14.01,2013-03-13 07:22:00,
2013-03-13 02:27:00,24.4,20.3,30.07,West,279,6.0,12.0,84,0.00,,OVC060,0.00,VWS V14.01,2013-03-13 07:27:00,
2013-03-13 02:32:00,24.4,20.3,30.07,WNW,286,3.0,7.0,84,0.00,,OVC060,0.00,VWS V14.01,2013-03-13 07:32:00,
2013-03-13 02:37:00,24.4,20.3,30.07,WNW,284,3.0,6.0,84,0.00,,OVC060,0.00,VWS V14.01,2013-03-13 07:37:00,
2013-03-13 02:42:00,24.4,20.3,30.07,WNW,286,7.0,8.0,84,0.00,,OVC060,0.00,VWS V14.01,2013-03-13 07:42:00,
2013-03-13 02:47:00,24.5,20.4,30.07,WNW,290,1.0,6.0,84,0.00,,OVC060,0.00,VWS V14.01,2013-03-13 07:47:00,
2013-03-13 02:52:00,24.4,20.3,30.07,WNW,291,5.0,7.0,84,0.00,,OVC060,0.00,VWS V14.01,2013-03-13 07:52:00,
2013-03-13 02:57:00,24.4,20.3,30.07,WNW,294,5.0,9.0,84,0.00,,OVC060,0.00,VWS V14.01,2013-03-13 07:57:00,
2013-03-13 03:02:00,24.5,20.4,30.07,WNW,296,7.0,8.0,84,0.00,,OVC060,0.00,VWS V14.01,2013-03-13 08:02:00,
2013-03-13 03:08:00,24.5,20.4,30.07,West,267,5.0,6.0,84,0.00,,OVC060,0.00,VWS V14.01,2013-03-13 08:08:00,
2013-03-13 03:13:00,24.5,20.6,30.07,West,279,1.0,7.0,85,0.00,,OVC060,0.00,VWS V14.01,2013-03-13 08:13:00,
2013-03-13 03:18:00,24.5,20.6,30.08,WNW,289,3.0,6.0,85,0.00,,OVC060,0.00,VWS V14.01,2013-03-13 08:18:00,
2013-03-13 03:23:00,24.5,20.6,30.08,West,272,3.0,11.0,85,0.00,,OVC060,0.00,VWS V14.01,2013-03-13 08:23:00,
2013-03-13 03:28:00,24.4,20.3,30.08,WNW,302,4.0,10.0,84,0.00,,OVC060,0.00,VWS V14.01,2013-03-13 08:28:00,
2013-03-13 03:33:00,24.4,20.3,30.08,West,273,4.0,9.0,84,0.00,,OVC060,0.00,VWS V14.01,2013-03-13 08:33:00,
2013-03-13 03:38:00,24.4,20.3,30.08,WNW,295,2.0,8.0,84,0.00,,OVC060,0.00,VWS V14.01,2013-03-13 08:38:00,
2013-03-13 03:43:00,24.3,20.2,30.08,WNW,292,1.0,8.0,84,0.00,,OVC060,0.00,VWS V14.01,2013-03-13 08:43:00,
2013-03-13 03:48:00,24.2,20.1,30.08,WNW,292,3.0,10.0,84,0.00,,OVC060,0.00,VWS V14.01,2013-03-13 08:48:00,
2013-03-13 03:53:00,24.2,20.4,30.08,WNW,290,3.0,7.0,85,0.00,,OVC060,0.00,VWS V14.01,2013-03-13 08:53:00,
2013-03-13 03:58:00,24.2,20.4,30.08,WNW,300,2.0,8.0,85,0.00,,OVC060,0.00,VWS V14.01,2013-03-13 08:58:00,
2013-03-13 04:03:00,24.1,20.2,30.08,WNW,303,3.0,9.0,85,0.00,,OVC060,0.00,VWS V14.01,2013-03-13 09:03:00,
2013-03-13 04:08:00,24.1,20.2,30.08,West,267,0.0,7.0,85,0.00,,OVC060,0.00,VWS V14.01,2013-03-13 09:08:00,
2013-03-13 04:13:00,24.0,20.1,30.08,WNW,292,3.0,9.0,85,0.00,,OVC060,0.00,VWS V14.01,2013-03-13 09:13:00,
2013-03-13 04:18:00,23.9,20.1,30.09,NW,304,4.0,5.0,85,0.00,,OVC060,0.00,VWS V14.01,2013-03-13 09:18:00,
2013-03-13 04:23:00,23.8,20.0,30.09,WNW,296,3.0,6.0,85,0.00,,OVC060,0.00,VWS V14.01,2013-03-13 09:23:00,
2013-03-13 04:28:00,23.7,19.9,30.09,WNW,294,2.0,7.0,85,0.00,,OVC060,0.00,VWS V14.01,2013-03-13 09:28:00,
2013-03-13 04:33:00,23.6,19.8,30.10,WNW,302,3.0,8.0,85,0.00,,OVC060,0.00,VWS V14.01,2013-03-13 09:33:00,
2013-03-13 04:38:00,23.6,19.8,30.10,WNW,292,2.0,8.0,85,0.00,,OVC060,0.00,VWS V14.01,2013-03-13 09:38:00,
2013-03-13 04:43:00,23.6,20.0,30.10,West,276,2.0,8.0,86,0.00,,BKN060,0.00,VWS V14.01,2013-03-13 09:43:00,
2013-03-13 04:48:00,23.6,20.0,30.10,WNW,291,3.0,7.0,86,0.00,,BKN060,0.00,VWS V14.01,2013-03-13 09:48:00,
2013-03-13 04:53:00,23.6,20.0,30.10,WNW,285,5.0,8.0,86,0.00,,BKN060,0.00,VWS V14.01,2013-03-13 09:53:00,
2013-03-13 04:58:00,23.7,20.1,30.10,WNW,302,4.0,9.0,86,0.00,,BKN060,0.00,VWS V14.01,2013-03-13 09:58:00,
2013-03-13 05:03:00,23.6,20.0,30.11,WNW,286,0.0,6.0,86,0.00,,SCT060,0.00,VWS V14.01,2013-03-13 10:03:00,
2013-03-13 05:08:00,23.6,20.0,30.11,WNW,303,1.0,7.0,86,0.00,,SCT060,0.00,VWS V14.01,2013-03-13 10:08:00,
2013-03-13 05:13:00,23.6,20.0,30.11,WNW,287,1.0,8.0,86,0.00,,SCT060,0.00,VWS V14.01,2013-03-13 10:13:00,
2013-03-13 05:18:00,23.6,20.0,30.12,West,281,6.0,6.0,86,0.00,,SCT060,0.00,VWS V14.01,2013-03-13 10:18:00,
2013-03-13 05:23:00,23.6,20.0,30.12,WNW,296,4.0,7.0,86,0.00,,FEW060,0.00,VWS V14.01,2013-03-13 10:23:00,
2013-03-13 05:28:00,23.8,20.2,30.12,WNW,298,0.0,7.0,86,0.00,,FEW060,0.00,VWS V14.01,2013-03-13 10:28:00,
2013-03-13 05:33:00,23.9,20.1,30.12,WNW,295,1.0,11.0,85,0.00,,FEW060,0.00,VWS V14.01,2013-03-13 10:33:00,
2013-03-13 05:38:00,24.0,19.9,30.12,West,277,7.0,9.0,84,0.00,,FEW060,0.00,VWS V14.01,2013-03-13 10:38:00,
2013-03-13 05:43:00,24.0,19.6,30.12,WNW,294,4.0,7.0,83,0.00,,SCT023,0.00,VWS V14.01,2013-03-13 10:43:00,
2013-03-13 05:48:00,24.0,19.6,30.12,WNW,291,0.0,11.0,83,0.00,,SCT023,0.00,VWS V14.01,2013-03-13 10:48:00,
2013-03-13 05:53:00,24.0,19.6,30.13,NW,310,4.0,5.0,83,0.00,,SCT023,0.00,VWS V14.01,2013-03-13 10:53:00,
2013-03-13 05:58:00,23.9,19.5,30.13,WNW,294,4.0,6.0,83,0.00,,SCT023,0.00,VWS V14.01,2013-03-13 10:58:00,
2013-03-13 06:03:00,23.8,19.4,30.14,West,279,0.0,3.0,83,0.00,,SCT023,0.00,VWS V14.01,2013-03-13 11:03:00,
2013-03-13 06:08:00,24.0,19.3,30.14,WNW,290,0.0,5.0,82,0.00,,SCT023,0.00,VWS V14.01,2013-03-13 11:08:00,
2013-03-13 06:13:00,24.2,19.8,30.14,WSW,257,2.0,9.0,83,0.00,,SCT023,0.00,VWS V14.01,2013-03-13 11:13:00,
2013-03-13 06:18:00,24.2,19.8,30.14,NW,321,0.0,11.0,83,0.00,,SCT023,0.00,VWS V14.01,2013-03-13 11:18:00,
2013-03-13 06:23:00,24.2,19.5,30.14,NW,304,0.0,6.0,82,0.00,,BKN025,0.00,VWS V14.01,2013-03-13 11:23:00,
2013-03-13 06:28:00,24.1,19.4,30.15,NW,323,2.0,8.0,82,0.00,,BKN025,0.00,VWS V14.01,2013-03-13 11:28:00,
2013-03-13 06:33:00,24.0,19.0,30.15,NNE,26,3.0,8.0,81,0.00,,BKN025,0.00,VWS V14.01,2013-03-13 11:33:00,
2013-03-13 06:38:00,23.8,18.5,30.15,NW,309,6.0,10.0,80,0.00,,BKN025,0.00,VWS V14.01,2013-03-13 11:38:00,
2013-03-13 06:43:00,23.6,18.4,30.16,NW,311,1.0,8.0,80,0.00,,OVC027,0.00,VWS V14.01,2013-03-13 11:43:00,
2013-03-13 06:48:00,23.4,18.1,30.16,NW,317,0.0,6.0,80,0.00,,OVC027,0.00,VWS V14.01,2013-03-13 11:48:00,
2013-03-13 06:53:00,23.1,17.9,30.16,WNW,297,4.0,7.0,80,0.00,,OVC027,0.00,VWS V14.01,2013-03-13 11:53:00,
2013-03-13 06:57:00,22.9,18.0,30.16,NW,321,1.0,5.0,81,0.00,,OVC027,0.00,VWS V14.01,2013-03-13 11:57:00,
2013-03-13 07:02:00,22.7,17.8,30.17,WNW,292,0.0,3.0,81,0.00,,OVC025,0.00,VWS V14.01,2013-03-13 12:02:00,
2013-03-13 07:07:00,22.6,17.9,30.17,WNW,294,0.0,4.0,82,0.00,,OVC025,0.00,VWS V14.01,2013-03-13 12:07:00,
2013-03-13 07:12:00,22.4,17.8,30.17,WNW,282,0.0,5.0,82,0.00,,OVC025,0.00,VWS V14.01,2013-03-13 12:12:00,
2013-03-13 07:17:00,22.4,17.8,30.17,West,271,0.0,4.0,82,0.00,,OVC025,0.00,VWS V14.01,2013-03-13 12:17:00,
2013-03-13 07:22:00,22.3,17.6,30.17,WNW,300,2.0,7.0,82,0.00,,BKN023,0.00,VWS V14.01,2013-03-13 12:22:00,
2013-03-13 07:27:00,22.3,17.6,30.18,WNW,298,0.0,7.0,82,0.00,,BKN023,0.00,VWS V14.01,2013-03-13 12:27:00,
2013-03-13 07:32:00,22.3,17.6,30.18,WNW,302,2.0,7.0,82,0.00,,BKN023,0.00,VWS V14.01,2013-03-13 12:32:00,
2013-03-13 07:37:00,22.4,17.5,30.18,West,274,3.0,8.0,81,0.00,,BKN023,0.00,VWS V14.01,2013-03-13 12:37:00,
2013-03-13 07:42:00,22.5,17.6,30.18,West,275,2.0,8.0,81,0.00,,CLR,0.00,VWS V14.01,2013-03-13 12:42:00,
2013-03-13 07:47:00,22.5,17.6,30.18,WNW,298,12.0,12.0,81,0.00,,CLR,0.00,VWS V14.01,2013-03-13 12:47:00,
2013-03-13 07:52:00,22.6,17.7,30.19,WNW,297,7.0,8.0,81,0.00,,CLR,0.00,VWS V14.01,2013-03-13 12:52:00,
2013-03-13 07:57:00,22.7,17.8,30.19,WNW,301,3.0,8.0,81,0.00,,CLR,0.00,VWS V14.01,2013-03-13 12:57:00,
2013-03-13 08:02:00,22.8,17.9,30.19,WNW,302,3.0,9.0,81,0.00,,CLR,0.00,VWS V14.01,2013-03-13 13:02:00,
2013-03-13 08:07:00,22.9,17.7,30.19,NNW,336,0.0,5.0,80,0.00,,CLR,0.00,VWS V14.01,2013-03-13 13:07:00,
2013-03-13 08:12:00,23.1,17.9,30.20,WNW,290,5.0,8.0,80,0.00,,CLR,0.00,VWS V14.01,2013-03-13 13:12:00,
2013-03-13 08:17:00,23.3,18.1,30.20,NNE,24,2.0,5.0,80,0.00,,CLR,0.00,VWS V14.01,2013-03-13 13:17:00,
2013-03-13 08:22:00,23.4,18.1,30.20,WNW,294,3.0,8.0,80,0.00,,CLR,0.00,VWS V14.01,2013-03-13 13:22:00,
2013-03-13 08:27:00,23.5,18.2,30.20,NW,306,2.0,6.0,80,0.00,,CLR,0.00,VWS V14.01,2013-03-13 13:27:00,
2013-03-13 08:32:00,23.6,18.1,30.20,NNW,327,3.0,10.0,79,0.00,,CLR,0.00,VWS V14.01,2013-03-13 13:32:00,
2013-03-13 08:37:00,23.7,17.9,30.21,WNW,286,4.0,9.0,78,0.00,,CLR,0.00,VWS V14.01,2013-03-13 13:37:00,
2013-03-13 08:43:00,23.7,17.9,30.21,NW,309,6.0,10.0,78,0.00,,CLR,0.00,VWS V14.01,2013-03-13 13:43:00,
2013-03-13 08:48:00,23.9,18.0,30.21,WNW,290,4.0,10.0,78,0.00,,CLR,0.00,VWS V14.01,2013-03-13 13:48:00,
2013-03-13 08:53:00,24.0,18.1,30.22,West,269,2.0,9.0,78,0.00,,CLR,0.00,VWS V14.01,2013-03-13 13:53:00,
2013-03-13 08:58:00,24.2,18.3,30.22,NW,323,0.0,8.0,78,0.00,,CLR,0.00,VWS V14.01,2013-03-13 13:58:00,
2013-03-13 09:03:00,24.4,18.5,30.22,West,265,8.0,10.0,78,0.00,,CLR,0.00,VWS V14.01,2013-03-13 14:03:00,
2013-03-13 09:08:00,24.6,18.7,30.22,WNW,288,1.0,12.0,78,0.00,,CLR,0.00,VWS V14.01,2013-03-13 14:08:00,
2013-03-13 09:13:00,24.9,19.0,30.23,WNW,292,2.0,8.0,78,0.00,,CLR,0.00,VWS V14.01,2013-03-13 14:13:00,
2013-03-13 09:18:00,25.0,19.1,30.23,NW,305,4.0,12.0,78,0.00,,CLR,0.00,VWS V14.01,2013-03-13 14:18:00,
2013-03-13 09:23:00,25.2,18.7,30.23,NW,312,0.0,11.0,76,0.00,,FEW024,0.00,VWS V14.01,2013-03-13 14:23:00,
2013-03-13 09:27:00,25.7,18.9,30.23,NNE,30,5.0,10.0,75,0.00,,FEW024,0.00,VWS V14.01,2013-03-13 14:27:00,
2013-03-13 09:32:00,25.8,19.0,30.24,WNW,286,3.0,9.0,75,0.00,,FEW024,0.00,VWS V14.01,2013-03-13 14:32:00,
2013-03-13 09:37:00,25.8,18.7,30.24,WNW,292,1.0,11.0,74,0.00,,FEW024,0.00,VWS V14.01,2013-03-13 14:37:00,
2013-03-13 09:42:00,25.8,18.4,30.24,WNW,288,3.0,13.0,73,0.00,,FEW026,0.00,VWS V14.01,2013-03-13 14:42:00,
2013-03-13 09:47:00,25.8,18.4,30.24,WNW,300,0.0,11.0,73,0.00,,FEW026,0.00,VWS V14.01,2013-03-13 14:47:00,
2013-03-13 09:53:00,26.3,19.1,30.24,NNW,337,5.0,6.0,74,0.00,,FEW026,0.00,VWS V14.01,2013-03-13 14:53:00,
2013-03-13 09:57:00,26.8,19.6,30.25,West,275,11.0,11.0,74,0.00,,FEW026,0.00,VWS V14.01,2013-03-13 14:57:00,
2013-03-13 10:02:00,26.6,18.8,30.25,WNW,292,2.0,12.0,72,0.00,,FEW026,0.00,VWS V14.01,2013-03-13 15:02:00,
2013-03-13 10:07:00,26.7,18.6,30.25,WNW,298,2.0,9.0,71,0.00,,FEW026,0.00,VWS V14.01,2013-03-13 15:07:00,
2013-03-13 10:12:00,27.1,19.3,30.25,WSW,245,2.0,10.0,72,0.00,,FEW026,0.00,VWS V14.01,2013-03-13 15:12:00,
2013-03-13 10:17:00,27.2,19.4,30.25,WNW,302,6.0,10.0,72,0.00,,FEW026,0.00,VWS V14.01,2013-03-13 15:17:00,
2013-03-13 10:22:00,27.6,19.4,30.26,WNW,302,2.0,7.0,71,0.00,,FEW028,0.00,VWS V14.01,2013-03-13 15:22:00,
2013-03-13 10:27:00,27.7,19.2,30.26,WNW,292,3.0,10.0,70,0.00,,FEW028,0.00,VWS V14.01,2013-03-13 15:27:00,
2013-03-13 10:32:00,27.6,18.4,30.26,NW,313,3.0,9.0,68,0.00,,FEW028,0.00,VWS V14.01,2013-03-13 15:32:00,
2013-03-13 10:37:00,27.8,18.6,30.26,NNW,327,1.0,9.0,68,0.00,,FEW028,0.00,VWS V14.01,2013-03-13 15:37:00,
2013-03-13 10:43:00,28.8,19.2,30.26,WNW,296,7.0,10.0,67,0.00,,SCT030,0.00,VWS V14.01,2013-03-13 15:43:00,
2013-03-13 10:48:00,28.4,18.9,30.26,NNW,344,0.0,9.0,67,0.00,,SCT030,0.00,VWS V14.01,2013-03-13 15:48:00,
2013-03-13 10:53:00,28.5,18.6,30.26,NW,318,7.0,12.0,66,0.00,,SCT030,0.00,VWS V14.01,2013-03-13 15:53:00,
2013-03-13 10:58:00,28.7,19.5,30.26,NW,325,3.0,7.0,68,0.00,,SCT030,0.00,VWS V14.01,2013-03-13 15:58:00,
2013-03-13 11:03:00,28.6,18.3,30.26,WNW,296,4.0,11.0,65,0.00,,FEW030,0.00,VWS V14.01,2013-03-13 16:03:00,
2013-03-13 11:08:00,28.6,18.3,30.26,WNW,288,5.0,12.0,65,0.00,,FEW030,0.00,VWS V14.01,2013-03-13 16:08:00,
2013-03-13 11:13:00,29.0,18.7,30.26,NW,310,6.0,10.0,65,0.00,,FEW030,0.00,VWS V14.01,2013-03-13 16:13:00,
2013-03-13 11:18:00,28.7,18.1,30.27,North,360,1.0,11.0,64,0.00,,FEW030,0.00,VWS V14.01,2013-03-13 16:18:00,
2013-03-13 11:23:00,29.3,19.0,30.27,West,278,5.0,11.0,65,0.00,,CLR,0.00,VWS V14.01,2013-03-13 16:23:00,
2013-03-13 11:28:00,29.1,17.7,30.27,NW,311,5.0,11.0,62,0.00,,CLR,0.00,VWS V14.01,2013-03-13 16:28:00,
2013-03-13 11:33:00,29.4,18.0,30.27,West,273,4.0,11.0,62,0.00,,CLR,0.00,VWS V14.01,2013-03-13 16:33:00,
2013-03-13 11:38:00,29.9,18.9,30.27,West,278,0.0,8.0,63,0.00,,CLR,0.00,VWS V14.01,2013-03-13 16:38:00,
2013-03-13 11:43:00,30.1,19.0,30.28,WNW,285,9.0,11.0,63,0.00,,CLR,0.00,VWS V14.01,2013-03-13 16:43:00,
2013-03-13 11:48:00,30.0,18.2,30.28,NNE,23,2.0,11.0,61,0.00,,CLR,0.00,VWS V14.01,2013-03-13 16:48:00,
2013-03-13 11:53:00,29.7,17.9,30.28,NW,323,5.0,15.0,61,0.00,,CLR,0.00,VWS V14.01,2013-03-13 16:53:00,
2013-03-13 11:58:00,30.2,18.0,30.28,WNW,293,4.0,11.0,60,0.00,,CLR,0.00,VWS V14.01,2013-03-13 16:58:00,
2013-03-13 12:03:00,30.5,17.9,30.28,WSW,256,1.0,12.0,59,0.00,,CLR,0.00,VWS V14.01,2013-03-13 17:03:00,
2013-03-13 12:08:00,30.5,17.9,30.28,NW,309,8.0,12.0,59,0.00,,CLR,0.00,VWS V14.01,2013-03-13 17:08:00,
2013-03-13 12:13:00,30.3,17.7,30.28,West,275,2.0,13.0,59,0.00,,CLR,0.00,VWS V14.01,2013-03-13 17:13:00,
2013-03-13 12:18:00,31.3,18.6,30.29,West,281,8.0,9.0,59,0.00,,CLR,0.00,VWS V14.01,2013-03-13 17:18:00,
2013-03-13 12:23:00,31.4,18.4,30.28,NNW,336,1.0,9.0,58,0.00,,CLR,0.00,VWS V14.01,2013-03-13 17:23:00,
2013-03-13 12:28:00,31.0,17.2,30.29,West,273,8.0,15.0,56,0.00,,CLR,0.00,VWS V14.01,2013-03-13 17:28:00,
2013-03-13 12:33:00,30.6,16.8,30.29,NNW,330,9.0,14.0,56,0.00,,CLR,0.00,VWS V14.01,2013-03-13 17:33:00,
2013-03-13 12:38:00,30.8,16.1,30.29,NNW,328,1.0,8.0,54,0.00,,CLR,0.00,VWS V14.01,2013-03-13 17:38:00,
2013-03-13 12:43:00,31.4,17.5,30.29,WNW,291,7.0,10.0,56,0.00,,CLR,0.00,VWS V14.01,2013-03-13 17:43:00,
2013-03-13 12:48:00,31.5,17.6,30.29,WNW,288,3.0,11.0,56,0.00,,CLR,0.00,VWS V14.01,2013-03-13 17:48:00,
2013-03-13 12:53:00,31.7,18.2,30.29,NE,46,1.0,10.0,57,0.00,,CLR,0.00,VWS V14.01,2013-03-13 17:53:00,
2013-03-13 12:58:00,32.4,17.6,30.29,West,281,11.0,11.0,54,0.00,,CLR,0.00,VWS V14.01,2013-03-13 17:58:00,
2013-03-13 13:03:00,32.0,17.2,30.29,West,276,0.0,8.0,54,0.00,,CLR,0.00,VWS V14.01,2013-03-13 18:03:00,
2013-03-13 13:08:00,32.3,18.8,30.29,West,277,0.0,6.0,57,0.00,,CLR,0.00,VWS V14.01,2013-03-13 18:08:00,
2013-03-13 13:13:00,32.9,18.5,30.29,West,263,10.0,10.0,55,0.00,,CLR,0.00,VWS V14.01,2013-03-13 18:13:00,
2013-03-13 13:18:00,32.9,17.2,30.29,NW,312,3.0,7.0,52,0.00,,CLR,0.00,VWS V14.01,2013-03-13 18:18:00,
2013-03-13 13:23:00,32.7,16.6,30.29,NW,324,1.0,6.0,51,0.00,,CLR,0.00,VWS V14.01,2013-03-13 18:23:00,
2013-03-13 13:28:00,33.3,18.0,30.29,NNE,22,1.0,7.0,53,0.00,,CLR,0.00,VWS V14.01,2013-03-13 18:28:00,
2013-03-13 13:33:00,33.5,19.1,30.29,WNW,289,5.0,10.0,55,0.00,,CLR,0.00,VWS V14.01,2013-03-13 18:33:00,
2013-03-13 13:38:00,33.5,18.2,30.29,NW,312,0.0,9.0,53,0.00,,CLR,0.00,VWS V14.01,2013-03-13 18:38:00,
2013-03-13 13:43:00,33.5,18.2,30.29,WNW,301,3.0,12.0,53,0.00,,CLR,0.00,VWS V14.01,2013-03-13 18:43:00,
2013-03-13 13:48:00,33.4,18.6,30.29,West,280,0.0,8.0,54,0.00,,CLR,0.00,VWS V14.01,2013-03-13 18:48:00,
2013-03-13 13:53:00,33.6,19.2,30.29,WNW,290,4.0,8.0,55,0.00,,CLR,0.00,VWS V14.01,2013-03-13 18:53:00,
2013-03-13 13:58:00,33.6,18.7,30.29,WNW,303,1.0,7.0,54,0.00,,CLR,0.00,VWS V14.01,2013-03-13 18:58:00,
2013-03-13 14:03:00,33.3,17.6,30.29,NW,314,0.0,12.0,52,0.00,,CLR,0.00,VWS V14.01,2013-03-13 19:03:00,
2013-03-13 14:08:00,33.6,17.9,30.29,NW,313,0.0,10.0,52,0.00,,CLR,0.00,VWS V14.01,2013-03-13 19:08:00,
2013-03-13 14:13:00,33.9,17.7,30.28,WNW,299,3.0,8.0,51,0.00,,CLR,0.00,VWS V14.01,2013-03-13 19:13:00,
2013-03-13 14:18:00,33.8,18.0,30.29,West,280,8.0,9.0,52,0.00,,CLR,0.00,VWS V14.01,2013-03-13 19:18:00,
2013-03-13 14:23:00,33.8,18.0,30.28,WNW,302,7.0,9.0,52,0.00,,CLR,0.00,VWS V14.01,2013-03-13 19:23:00,
2013-03-13 14:28:00,33.8,18.9,30.29,WNW,290,0.0,9.0,54,0.00,,CLR,0.00,VWS V14.01,2013-03-13 19:28:00,
2013-03-13 14:33:00,33.6,17.9,30.29,West,275,5.0,8.0,52,0.00,,CLR,0.00,VWS V14.01,2013-03-13 19:33:00,
2013-03-13 14:38:00,33.7,18.8,30.29,WNW,288,1.0,10.0,54,0.00,,CLR,0.00,VWS V14.01,2013-03-13 19:38:00,
2013-03-13 14:43:00,33.6,17.0,30.29,West,263,6.0,12.0,50,0.00,,CLR,0.00,VWS V14.01,2013-03-13 19:43:00,
2013-03-13 14:48:00,33.7,18.0,30.28,WNW,287,7.0,7.0,52,0.00,,CLR,0.00,VWS V14.01,2013-03-13 19:48:00,
2013-03-13 14:53:00,34.0,18.2,30.28,NW,304,4.0,7.0,52,0.00,,CLR,0.00,VWS V14.01,2013-03-13 19:53:00,
2013-03-13 14:58:00,34.1,18.3,30.28,West,278,7.0,7.0,52,0.00,,CLR,0.00,VWS V14.01,2013-03-13 19:58:00,
2013-03-13 15:03:00,34.0,17.3,30.28,West,262,4.0,9.0,50,0.00,,CLR,0.00,VWS V14.01,2013-03-13 20:03:00,
2013-03-13 15:08:00,34.0,17.8,30.28,NW,306,1.0,8.0,51,0.00,,CLR,0.00,VWS V14.01,2013-03-13 20:08:00,
2013-03-13 15:13:00,34.2,18.4,30.28,NW,323,3.0,8.0,52,0.00,,CLR,0.00,VWS V14.01,2013-03-13 20:13:00,
2013-03-13 15:18:00,34.4,18.2,30.28,NW,311,1.0,7.0,51,0.00,,CLR,0.00,VWS V14.01,2013-03-13 20:18:00,
2013-03-13 15:23:00,34.4,16.8,30.29,NNW,328,3.0,8.0,48,0.00,,CLR,0.00,VWS V14.01,2013-03-13 20:23:00,
2013-03-13 15:28:00,34.3,17.1,30.29,West,271,2.0,13.0,49,0.00,,CLR,0.00,VWS V14.01,2013-03-13 20:28:00,
2013-03-13 15:33:00,34.2,17.0,30.29,West,272,4.0,9.0,49,0.00,,CLR,0.00,VWS V14.01,2013-03-13 20:33:00,
2013-03-13 15:38:00,34.2,17.0,30.29,West,260,3.0,6.0,49,0.00,,CLR,0.00,VWS V14.01,2013-03-13 20:38:00,
2013-03-13 15:43:00,34.3,16.2,30.29,WNW,301,4.0,13.0,47,0.00,,CLR,0.00,VWS V14.01,2013-03-13 20:43:00,
2013-03-13 15:48:00,34.2,16.6,30.29,WNW,284,3.0,11.0,48,0.00,,CLR,0.00,VWS V14.01,2013-03-13 20:48:00,
2013-03-13 15:53:00,34.5,17.8,30.29,West,280,5.0,8.0,50,0.00,,CLR,0.00,VWS V14.01,2013-03-13 20:53:00,
2013-03-13 15:58:00,34.6,16.5,30.29,WNW,292,5.0,8.0,47,0.00,,CLR,0.00,VWS V14.01,2013-03-13 20:58:00,
2013-03-13 16:03:00,34.7,15.6,30.29,WNW,286,4.0,8.0,45,0.00,,CLR,0.00,VWS V14.01,2013-03-13 21:03:00,
2013-03-13 16:08:00,34.5,15.9,30.29,West,266,5.0,8.0,46,0.00,,CLR,0.00,VWS V14.01,2013-03-13 21:08:00,
2013-03-13 16:13:00,34.7,16.5,30.29,NW,308,1.0,9.0,47,0.00,,CLR,0.00,VWS V14.01,2013-03-13 21:13:00,
2013-03-13 16:18:00,34.7,17.0,30.29,WSW,257,8.0,8.0,48,0.00,,CLR,0.00,VWS V14.01,2013-03-13 21:18:00,
2013-03-13 16:23:00,34.5,16.9,30.29,WSW,248,7.0,9.0,48,0.00,,CLR,0.00,VWS V14.01,2013-03-13 21:23:00,
2013-03-13 16:28:00,34.6,16.9,30.29,West,271,5.0,7.0,48,0.00,,CLR,0.00,VWS V14.01,2013-03-13 21:28:00,
2013-03-13 16:33:00,34.7,17.0,30.29,West,275,5.0,12.0,48,0.00,,CLR,0.00,VWS V14.01,2013-03-13 21:33:00,
2013-03-13 16:38:00,35.0,17.8,30.29,West,264,4.0,6.0,49,0.00,,CLR,0.00,VWS V14.01,2013-03-13 21:38:00,
2013-03-13 16:43:00,34.9,17.2,30.29,West,260,4.0,6.0,48,0.00,,CLR,0.00,VWS V14.01,2013-03-13 21:43:00,
2013-03-13 16:48:00,35.0,16.8,30.29,WNW,296,0.0,7.0,47,0.00,,CLR,0.00,VWS V14.01,2013-03-13 21:48:00,
2013-03-13 16:53:00,35.1,17.9,30.29,WNW,284,2.0,7.0,49,0.00,,CLR,0.00,VWS V14.01,2013-03-13 21:53:00,
2013-03-13 16:58:00,35.0,16.8,30.29,West,279,3.0,9.0,47,0.00,,CLR,0.00,VWS V14.01,2013-03-13 21:58:00,
2013-03-13 17:03:00,34.9,17.7,30.30,West,270,3.0,8.0,49,0.00,,CLR,0.00,VWS V14.01,2013-03-13 22:03:00,
2013-03-13 17:08:00,34.8,18.1,30.30,West,281,5.0,6.0,50,0.00,,CLR,0.00,VWS V14.01,2013-03-13 22:08:00,
2013-03-13 17:13:00,34.7,18.0,30.30,WSW,255,3.0,9.0,50,0.00,,CLR,0.00,VWS V14.01,2013-03-13 22:13:00,
2013-03-13 17:18:00,34.7,17.5,30.30,WNW,292,5.0,9.0,49,0.00,,CLR,0.00,VWS V14.01,2013-03-13 22:18:00,
2013-03-13 17:23:00,34.4,17.2,30.30,WNW,286,3.0,9.0,49,0.00,,CLR,0.00,VWS V14.01,2013-03-13 22:23:00,
2013-03-13 17:28:00,34.3,16.7,30.29,WNW,296,2.0,7.0,48,0.00,,CLR,0.00,VWS V14.01,2013-03-13 22:28:00,
2013-03-13 17:33:00,34.3,17.1,30.30,West,262,3.0,6.0,49,0.00,,CLR,0.00,VWS V14.01,2013-03-13 22:33:00,
2013-03-13 17:38:00,34.3,17.1,30.30,West,270,4.0,6.0,49,0.00,,CLR,0.00,VWS V14.01,2013-03-13 22:38:00,
2013-03-13 17:43:00,34.3,17.6,30.30,West,269,4.0,7.0,50,0.00,,CLR,0.00,VWS V14.01,2013-03-13 22:43:00,
2013-03-13 17:48:00,34.2,18.0,30.30,WNW,285,1.0,6.0,51,0.00,,CLR,0.00,VWS V14.01,2013-03-13 22:48:00,
2013-03-13 17:53:00,34.2,18.4,30.30,West,277,3.0,5.0,52,0.00,,CLR,0.00,VWS V14.01,2013-03-13 22:53:00,
2013-03-13 17:58:00,34.1,17.0,30.30,NW,307,3.0,5.0,49,0.00,,CLR,0.00,VWS V14.01,2013-03-13 22:58:00,
2013-03-13 18:03:00,34.0,17.3,30.30,West,265,4.0,6.0,50,0.00,,CLR,0.00,VWS V14.01,2013-03-13 23:03:00,
2013-03-13 18:08:00,33.8,17.1,30.30,WNW,286,2.0,8.0,50,0.00,,CLR,0.00,VWS V14.01,2013-03-13 23:08:00,
2013-03-13 18:13:00,33.6,17.4,30.30,WNW,292,3.0,6.0,51,0.00,,CLR,0.00,VWS V14.01,2013-03-13 23:13:00,
2013-03-13 18:18:00,33.5,17.3,30.30,WNW,290,3.0,6.0,51,0.00,,CLR,0.00,VWS V14.01,2013-03-13 23:18:00,
2013-03-13 18:23:00,33.4,18.1,30.30,WSW,256,3.0,5.0,53,0.00,,CLR,0.00,VWS V14.01,2013-03-13 23:23:00,
2013-03-13 18:28:00,33.2,18.4,30.31,WNW,286,5.0,6.0,54,0.00,,CLR,0.00,VWS V14.01,2013-03-13 23:28:00,
2013-03-13 18:33:00,32.9,18.5,30.31,NW,324,1.0,5.0,55,0.00,,CLR,0.00,VWS V14.01,2013-03-13 23:33:00,
2013-03-13 18:38:00,32.7,18.3,30.31,West,281,0.0,5.0,55,0.00,,CLR,0.00,VWS V14.01,2013-03-13 23:38:00,
2013-03-13 18:43:00,32.5,19.0,30.30,West,280,2.0,3.0,57,0.00,,CLR,0.00,VWS V14.01,2013-03-13 23:43:00,
2013-03-13 18:48:00,32.2,19.5,30.30,West,281,0.0,3.0,59,0.00,,CLR,0.00,VWS V14.01,2013-03-13 23:48:00,
2013-03-13 18:53:00,31.9,19.6,30.30,West,275,2.0,3.0,60,0.00,,CLR,0.00,VWS V14.01,2013-03-13 23:53:00,
2013-03-13 18:58:00,31.7,19.4,30.30,West,280,0.0,5.0,60,0.00,,CLR,0.00,VWS V14.01,2013-03-13 23:58:00,
2013-03-13 19:03:00,31.5,19.6,30.30,West,279,1.0,1.0,61,0.00,,CLR,0.00,VWS V14.01,2013-03-14 00:03:00,
2013-03-13 19:08:00,31.3,19.4,30.30,West,281,0.0,2.0,61,0.00,,CLR,0.00,VWS V14.01,2013-03-14 00:08:00,
2013-03-13 19:13:00,31.1,20.0,30.30,West,281,0.0,3.0,63,0.00,,CLR,0.00,VWS V14.01,2013-03-14 00:13:00,
2013-03-13 19:18:00,31.0,20.6,30.30,West,281,1.0,3.0,65,0.00,,CLR,0.00,VWS V14.01,2013-03-14 00:18:00,
2013-03-13 19:23:00,30.7,20.7,30.30,West,267,0.0,4.0,66,0.00,,CLR,0.00,VWS V14.01,2013-03-14 00:23:00,
2013-03-13 19:28:00,30.6,21.0,30.30,West,275,0.0,4.0,67,0.00,,CLR,0.00,VWS V14.01,2013-03-14 00:28:00,
2013-03-13 19:33:00,30.4,20.8,30.30,West,278,3.0,4.0,67,0.00,,CLR,0.00,VWS V14.01,2013-03-14 00:33:00,
2013-03-13 19:38:00,30.3,21.0,30.30,WNW,294,0.0,3.0,68,0.00,,CLR,0.00,VWS V14.01,2013-03-14 00:38:00,
2013-03-13 19:43:00,30.2,20.9,30.30,WNW,283,1.0,3.0,68,0.00,,CLR,0.00,VWS V14.01,2013-03-14 00:43:00,
2013-03-13 19:48:00,30.0,20.7,30.30,WNW,283,3.0,5.0,68,0.00,,CLR,0.00,VWS V14.01,2013-03-14 00:48:00,
2013-03-13 19:53:00,30.0,21.1,30.30,WNW,284,0.0,5.0,69,0.00,,CLR,0.00,VWS V14.01,2013-03-14 00:53:00,
2013-03-13 19:58:00,29.9,21.0,30.30,WNW,287,1.0,5.0,69,0.00,,CLR,0.00,VWS V14.01,2013-03-14 00:58:00,
2013-03-13 20:03:00,29.8,20.9,30.30,West,281,0.0,5.0,69,0.00,,CLR,0.00,VWS V14.01,2013-03-14 01:03:00,
2013-03-13 20:08:00,29.7,20.8,30.30,West,259,2.0,5.0,69,0.00,,CLR,0.00,VWS V14.01,2013-03-14 01:08:00,
2013-03-13 20:13:00,29.6,21.0,30.31,WNW,287,3.0,3.0,70,0.00,,CLR,0.00,VWS V14.01,2013-03-14 01:13:00,
2013-03-13 20:18:00,29.4,20.8,30.31,WNW,287,2.0,4.0,70,0.00,,CLR,0.00,VWS V14.01,2013-03-14 01:18:00,
2013-03-13 20:23:00,29.4,21.2,30.31,West,277,2.0,3.0,71,0.00,,CLR,0.00,VWS V14.01,2013-03-14 01:23:00,
2013-03-13 20:28:00,29.2,21.3,30.31,WNW,283,2.0,4.0,72,0.00,,CLR,0.00,VWS V14.01,2013-03-14 01:28:00,
2013-03-13 20:32:00,29.0,21.1,30.31,WSW,248,2.0,4.0,72,0.00,,CLR,0.00,VWS V14.01,2013-03-14 01:32:00,
2013-03-13 20:38:00,28.9,21.4,30.31,WSW,250,0.0,5.0,73,0.00,,CLR,0.00,VWS V14.01,2013-03-14 01:38:00,
2013-03-13 20:43:00,28.7,21.1,30.31,WSW,257,0.0,4.0,73,0.00,,CLR,0.00,VWS V14.01,2013-03-14 01:43:00,
2013-03-13 20:47:00,28.6,21.1,30.31,SW,232,1.0,3.0,73,0.00,,CLR,0.00,VWS V14.01,2013-03-14 01:47:00,
2013-03-13 20:52:00,28.5,21.3,30.31,SW,232,4.0,4.0,74,0.00,,CLR,0.00,VWS V14.01,2013-03-14 01:52:00,
2013-03-13 20:57:00,28.4,21.2,30.30,SW,236,3.0,3.0,74,0.00,,CLR,0.00,VWS V14.01,2013-03-14 01:57:00,
2013-03-13 21:02:00,28.3,21.1,30.30,SW,225,4.0,5.0,74,0.00,,CLR,0.00,VWS V14.01,2013-03-14 02:02:00,
2013-03-13 21:07:00,28.2,21.3,30.30,SW,234,0.0,4.0,75,0.00,,CLR,0.00,VWS V14.01,2013-03-14 02:07:00,
2013-03-13 21:12:00,28.1,21.2,30.30,WSW,246,3.0,5.0,75,0.00,,CLR,0.00,VWS V14.01,2013-03-14 02:12:00,
2013-03-13 21:17:00,28.1,21.2,30.31,SW,236,3.0,4.0,75,0.00,,CLR,0.00,VWS V14.01,2013-03-14 02:17:00,
2013-03-13 21:22:00,28.0,21.4,30.30,WNW,284,4.0,5.0,76,0.00,,CLR,0.00,VWS V14.01,2013-03-14 02:22:00,
2013-03-13 21:27:00,27.9,21.3,30.30,WNW,288,0.0,3.0,76,0.00,,CLR,0.00,VWS V14.01,2013-03-14 02:27:00,
2013-03-13 21:32:00,27.8,21.5,30.30,WNW,288,2.0,2.0,77,0.00,,CLR,0.00,VWS V14.01,2013-03-14 02:32:00,
2013-03-13 21:37:00,27.6,21.4,30.31,WNW,288,0.0,0.0,77,0.00,,CLR,0.00,VWS V14.01,2013-03-14 02:37:00,
2013-03-13 21:42:00,27.5,21.2,30.31,WNW,288,0.0,0.0,77,0.00,,CLR,0.00,VWS V14.01,2013-03-14 02:42:00,
2013-03-13 21:47:00,27.4,21.5,30.30,WNW,288,0.0,0.0,78,0.00,,CLR,0.00,VWS V14.01,2013-03-14 02:47:00,
2013-03-13 21:52:00,27.3,21.4,30.31,WNW,288,0.0,0.0,78,0.00,,CLR,0.00,VWS V14.01,2013-03-14 02:52:00,
2013-03-13 21:57:00,27.1,21.2,30.31,WNW,288,1.0,1.0,78,0.00,,CLR,0.00,VWS V14.01,2013-03-14 02:57:00,
2013-03-13 22:02:00,26.9,21.3,30.31,WNW,288,0.0,1.0,79,0.00,,CLR,0.00,VWS V14.01,2013-03-14 03:02:00,
2013-03-13 22:07:00,26.7,21.1,30.31,WNW,288,0.0,1.0,79,0.00,,CLR,0.00,VWS V14.01,2013-03-14 03:07:00,
2013-03-13 22:12:00,26.6,21.0,30.31,WNW,288,0.0,0.0,79,0.00,,CLR,0.00,VWS V14.01,2013-03-14 03:12:00,
2013-03-13 22:17:00,26.5,20.9,30.31,WNW,288,0.0,0.0,79,0.00,,CLR,0.00,VWS V14.01,2013-03-14 03:17:00,
2013-03-13 22:22:00,26.3,20.7,30.31,WNW,288,2.0,2.0,79,0.00,,CLR,0.00,VWS V14.01,2013-03-14 03:22:00,
2013-03-13 22:27:00,26.3,20.7,30.31,WNW,288,0.0,2.0,79,0.00,,CLR,0.00,VWS V14.01,2013-03-14 03:27:00,
2013-03-13 22:32:00,26.2,20.6,30.31,WNW,288,2.0,2.0,79,0.00,,CLR,0.00,VWS V14.01,2013-03-14 03:32:00,
2013-03-13 22:37:00,26.2,20.3,30.31,WNW,288,1.0,3.0,78,0.00,,CLR,0.00,VWS V14.01,2013-03-14 03:37:00,
2013-03-13 22:42:00,26.1,20.2,30.31,WNW,288,3.0,3.0,78,0.00,,CLR,0.00,VWS V14.01,2013-03-14 03:42:00,
2013-03-13 22:47:00,26.2,20.3,30.31,West,281,2.0,4.0,78,0.00,,CLR,0.00,VWS V14.01,2013-03-14 03:47:00,
2013-03-13 22:52:00,26.2,20.0,30.31,WSW,257,0.0,0.0,77,0.00,,CLR,0.00,VWS V14.01,2013-03-14 03:52:00,
2013-03-13 22:57:00,26.1,19.9,30.31,WSW,257,0.0,3.0,77,0.00,,CLR,0.00,VWS V14.01,2013-03-14 03:57:00,
2013-03-13 23:00:00,26.1,19.9,30.31,WSW,257,1.0,4.0,77,0.00,,CLR,0.00,VWS V14.01,2013-03-14 04:00:00,
2013-03-13 23:05:00,26.1,20.2,30.31,WSW,257,1.0,3.0,78,0.00,,CLR,0.00,VWS V14.01,2013-03-14 04:05:00,
2013-03-13 23:10:00,26.0,20.1,30.31,WSW,257,1.0,3.0,78,0.00,,CLR,0.00,VWS V14.01,2013-03-14 04:10:00,
2013-03-13 23:15:00,25.9,20.0,30.31,WSW,256,3.0,4.0,78,0.00,,CLR,0.00,VWS V14.01,2013-03-14 04:15:00,
2013-03-13 23:20:00,25.8,19.9,30.31,WSW,256,2.0,3.0,78,0.00,,CLR,0.00,VWS V14.01,2013-03-14 04:20:00,
2013-03-13 23:25:00,25.7,19.8,30.31,WSW,256,0.0,4.0,78,0.00,,CLR,0.00,VWS V14.01,2013-03-14 04:25:00,
2013-03-13 23:30:00,25.6,19.7,30.31,West,259,2.0,4.0,78,0.00,,CLR,0.00,VWS V14.01,2013-03-14 04:30:00,
2013-03-13 23:35:00,25.6,19.7,30.31,West,259,0.0,3.0,78,0.00,,CLR,0.00,VWS V14.01,2013-03-14 04:35:00,
2013-03-13 23:40:00,25.5,19.3,30.31,West,259,1.0,3.0,77,0.00,,CLR,0.00,VWS V14.01,2013-03-14 04:40:00,
2013-03-13 23:45:00,25.4,19.2,30.31,West,259,1.0,3.0,77,0.00,,CLR,0.00,VWS V14.01,2013-03-14 04:45:00,
2013-03-13 23:50:00,25.4,19.5,30.31,West,259,3.0,3.0,78,0.00,,CLR,0.00,VWS V14.01,2013-03-14 04:50:00,
2013-03-13 23:55:00,25.4,19.5,30.31,WNW,301,1.0,4.0,78,0.00,,CLR,0.00,VWS V14.01,2013-03-14 04:55:00,